Troy, AL

7:34 AM CST on January 21, 2018 (GMT -0600)
Troy Municipal

Weather History for KTOI - October, 2012

Change the Weather History Date:

Friday, October 26, 2012

  Actual Average Record
Temperature  
Mean Temperature 69 °F 62 °F  
Max Temperature 84 °F 75 °F 88 °F (2010)
Min Temperature 54 °F 49 °F 32 °F (2005)
Degree Days  
Heating Degree Days 0 5  
Month to date heating degree days 30 66  
Since 1 July heating degree days 30 70  
Cooling Degree Days 4 2  
Month to date cooling degree days 57 89  
Year to date cooling degree days 2087 2037  
Growing Degree Days 18 (Base 50)    
Moisture  
Dew Point 57 °F    
Average Humidity 70    
Maximum Humidity 100    
Minimum Humidity 40    
Precipitation  
Precipitation 0.00 in 0.12 in 1.68 in (2002)
Month to date precipitation 1.88 2.67  
Year to date precipitation 50.03 44.58  
Snow  
Snow 0.00 in - - ()
Month to date snowfall 0.0  
Since 1 July snowfall 0.0  
Since 1 September snowfall 0.0  
Snow Depth 0.00 in    
Sea Level Pressure  
Sea Level Pressure 29.94 in    
Wind  
Wind Speed 3 mph (NE)    
Max Wind Speed 12 mph    
Max Gust Speed 16 mph    
Visibility 10 miles    
Events      
T = Trace of Precipitation, MM = Missing Value Source: NWS Daily Summary

Daily Weather History Graph

Daily Weather History Graph

Search for Another Location

Airport or City:

Trip Planner

Search our weather history database for the weather conditions in past years. The results will help you decide how hot, cold, wet, or windy it might be!

Date:

Astronomy

Oct. 26, 2012 Rise Set
Actual Time 6:56 AM CDT 5:59 PM CDT
Civil Twilight 6:31 AM CDT 6:24 PM CDT
Nautical Twilight 6:02 AM CDT 6:53 PM CDT
Astronomical Twilight 5:33 AM CDT 7:21 PM CDT
Moon 4:07 PM CDT (10/26) 4:00 AM CDT (10/26)
Length of Visible Light 11h 53m
Length of Day
11h 03m
Waxing Gibbous, 91% of the Moon is Illuminated
Oct 26
Waxing Gibbous
Oct 29
Full
Nov 6
Last Quarter
Nov 13
New
Nov 20
First Quarter

Hourly Weather History & Observations

Time (CDT) Temp. Heat Index Dew Point Humidity Pressure Visibility Wind Dir Wind Speed Gust Speed Precip Events Conditions
12:53 AM 60.1 °F - 57.0 °F 90% 29.97 in 10.0 mi Calm Calm - N/A   Clear
1:53 AM 57.9 °F - 55.9 °F 93% 29.97 in 10.0 mi Calm Calm - N/A   Clear
2:53 AM 57.0 °F - 55.0 °F 93% 29.97 in 10.0 mi Calm Calm - N/A   Clear
3:53 AM 55.9 °F - 55.0 °F 97% 29.96 in 10.0 mi Calm Calm - N/A   Clear
4:53 AM 54.0 °F - 53.1 °F 97% 29.96 in 9.0 mi Calm Calm - N/A   Clear
5:53 AM 55.9 °F - 54.0 °F 93% 29.97 in 9.0 mi Calm Calm - N/A   Clear
6:53 AM 55.0 °F - 53.1 °F 93% 29.98 in 9.0 mi Calm Calm - N/A   Clear
7:53 AM 59.0 °F - 55.9 °F 90% 30.00 in 9.0 mi Calm Calm - N/A   Clear
8:53 AM 66.0 °F - 62.1 °F 87% 30.01 in 10.0 mi ENE 4.6 mph - N/A   Clear
9:53 AM 72.0 °F - 63.0 °F 73% 30.02 in 10.0 mi East 5.8 mph - N/A   Clear
10:53 AM 78.1 °F - 64.9 °F 64% 30.01 in 10.0 mi ENE 6.9 mph - N/A   Partly Cloudy
11:53 AM 81.0 °F 81.7 °F 61.0 °F 50% 29.99 in 10.0 mi Variable 5.8 mph - N/A   Partly Cloudy
12:53 PM 81.0 °F 81.0 °F 57.0 °F 44% 29.95 in 10.0 mi NNE 6.9 mph - N/A   Mostly Cloudy
1:53 PM 82.9 °F 82.4 °F 57.0 °F 41% 29.92 in 10.0 mi East 6.9 mph - N/A   Mostly Cloudy
2:53 PM 82.9 °F 82.0 °F 55.0 °F 38% 29.90 in 10.0 mi NE 9.2 mph - N/A   Clear
3:53 PM 82.9 °F 82.1 °F 55.9 °F 39% 29.89 in 10.0 mi North 8.1 mph - N/A   Clear
4:53 PM 82.0 °F 81.4 °F 55.0 °F 39% 29.89 in 10.0 mi NNW 6.9 mph - N/A   Clear
5:53 PM 75.0 °F - 57.9 °F 55% 29.89 in 10.0 mi Calm Calm - N/A   Clear
6:53 PM 69.1 °F - 59.0 °F 70% 29.90 in 10.0 mi Calm Calm - N/A   Clear
7:53 PM 63.0 °F - 59.0 °F 87% 29.90 in 10.0 mi Calm Calm - N/A   Clear
8:53 PM 61.0 °F - 59.0 °F 93% 29.91 in 10.0 mi Calm Calm - N/A   Clear
9:53 PM 61.0 °F - 57.0 °F 87% 29.90 in 10.0 mi Calm Calm - N/A   Clear
10:53 PM 59.0 °F - 57.0 °F 93% 29.91 in 9.0 mi Calm Calm - N/A   Clear
11:53 PM 57.9 °F - 55.9 °F 93% 29.90 in 10.0 mi Calm Calm - N/A   Clear